Index of /pub/simtelnet/msdos/keyboard

[ICO]NameLast modifiedSizeDescription

[DIR]Parent Directory  -  
[   ]7key.zip10-May-1999 11:02 57K 
[   ]256keys.zip17-Jul-1997 00:00 3.1K 
[   ]aakeys02.zip18-Mar-1998 00:00 3.7K 
[   ]ak100a.zip17-Jul-1997 00:00 11K 
[   ]anarkey4.zip17-Jul-1997 00:00 129K 
[   ]aschp101.zip17-Jul-1997 00:00 27K 
[   ]atkbrate.zip17-Jul-1997 00:00 1.9K 
[   ]autokey.zip17-Jul-1997 00:00 9.1K 
[   ]bpm-20.zip18-Jul-1998 00:00 4.0K 
[   ]buf160_6.zip17-Jul-1997 00:00 6.7K 
[   ]buffer12.zip17-Jul-1997 00:00 4.8K 
[   ]burti600.zip14-Mar-1998 00:00 11K 
[   ]cadel.zip17-Jul-1997 00:00 2.2K 
[   ]capsctrl.asm19-Jan-1988 00:00 1.9K 
[   ]capslock.zip17-Jul-1997 00:00 4.7K 
[   ]cchar.zip17-Jul-1997 00:00 2.0K 
[   ]ced10da.zip17-Jul-1997 00:00 24K 
[   ]cedins.zip17-Jul-1997 00:00 898  
[   ]cedwars2.zip17-Jul-1997 00:00 60K 
[   ]char5.zip17-Jul-1997 00:00 11K 
[   ]claveng.zip17-Jul-1997 00:00 2.2K 
[   ]clavfr.zip17-Jul-1997 00:00 2.3K 
[   ]click10.zip17-Jul-1997 00:00 2.4K 
[   ]cmded320.zip27-Dec-2001 19:52 163K 
[   ]cmded321.zip24-Mar-2003 14:14 162K 
[   ]colon12.zip17-Jul-1997 00:00 4.0K 
[TXT]ctrladel.asm17-Dec-1989 00:00 7.1K 
[   ]d5macs.zip17-Jul-1997 00:00 4.7K 
[   ]ddkey203.zip17-Feb-2000 01:22 25K 
[   ]dk.zip01-Jan-1998 00:00 26K 
[   ]dlkey11.zip17-Jul-1997 00:00 33K 
[DIR]dm/10-Oct-2008 03:51 -  
[   ]dosed500.zip17-Jul-1997 00:00 8.5K 
[   ]doskey.zip17-Dec-2001 22:31 5.0K 
[   ]encore.zip17-Jul-1997 00:00 7.6K 
[   ]f_keys13.zip10-Apr-2001 16:40 12K 
[   ]fastbf26.zip17-Jul-1997 00:00 33K 
[   ]fcsh072.zip28-Feb-1999 22:23 22K 
[   ]fix101ky.zip17-Jul-1997 00:00 4.2K 
[   ]fixkey.zip17-Jul-1997 00:00 2.8K 
[   ]fkeyskit.zip17-Jul-1997 00:00 33K 
[   ]getasci1.zip17-Jul-1997 00:00 4.1K 
[   ]gold22.zip17-Jul-1997 00:00 11K 
[   ]iceland.zip17-Jul-1997 00:00 2.8K 
[   ]int9fix3.zip17-Jul-1997 00:00 14K 
[   ]jackie11.zip17-Jul-1997 00:00 47K 
[   ]kb84fix.zip17-Jul-1997 00:00 2.1K 
[   ]kbd_dk1.zip17-Jul-1997 00:00 3.6K 
[TXT]kbd_pins.lst03-Sep-1989 00:00 675  
[   ]kbfix230.zip17-Jul-1997 00:00 11K 
[   ]kbreset.zip17-Jul-1997 00:00 406  
[   ]kbuf11.zip17-Jul-1997 00:00 4.8K 
[   ]keybuf20.zip17-Jul-1997 00:00 4.7K 
[   ]keyclean.zip17-Jul-1997 00:00 4.1K 
[   ]keyctl12.zip17-Jul-1997 00:00 15K 
[   ]keydef03.zip17-Jul-1997 00:00 12K 
[   ]keyf_12.zip17-Jul-1997 00:00 29K 
[   ]keykill.zip17-Jul-1997 00:00 3.0K 
[   ]keymap00.zip17-Jul-1997 00:00 13K 
[   ]keyprs30.zip17-Jul-1997 00:00 3.8K 
[   ]keyscan.zip17-Jul-1997 00:00 22K 
[   ]keystf11.zip17-Jul-1997 00:00 8.8K 
[   ]keyswap.zip17-Jul-1997 00:00 1.0K 
[   ]keyswp12.zip17-Jul-1997 00:00 40K 
[   ]kset15.zip17-Jul-1997 00:00 13K 
[   ]kystp110.zip17-Jul-1997 00:00 7.5K 
[   ]lock.zip17-Jul-1997 00:00 3.1K 
[   ]lock_off.zip17-Jul-1997 00:00 953  
[   ]locks.zip17-Jul-1997 00:00 3.5K 
[   ]mkey120a.zip17-Jul-1997 00:00 83K 
[   ]newkey54.zip17-Jul-1997 00:00 151K 
[   ]num_off.asm10-May-1988 00:00 413  
[   ]numlock.zip17-Jul-1997 00:00 9.3K 
[   ]otto16.zip17-Jul-1997 00:00 23K 
[   ]pb24.zip17-Jul-1997 00:00 31K 
[   ]pksfan11.zip17-Jul-1997 00:00 1.9K 
[   ]prokez18.zip17-Jul-1997 00:00 29K 
[   ]ptm228.zip17-Jul-1997 00:00 205K 
[   ]rbkeyswp.zip17-Jul-1997 00:00 3.9K 
[   ]recall12.zip17-Jul-1997 00:00 33K 
[   ]regain.zip17-Jul-1997 00:00 41K 
[   ]robokey.zip17-Jul-1997 00:00 3.3K 
[   ]scancode.zip17-Jul-1997 00:00 9.2K 
[   ]scncd500.zip01-Aug-1998 00:00 54K 
[   ]scncodtp.zip17-Jul-1997 00:00 6.5K 
[   ]scode22.zip17-Jul-1997 00:00 10K 
[   ]simkey11.zip17-Jul-1997 00:00 8.9K 
[   ]speedkey.zip17-Jul-1997 00:00 672  
[   ]stuff310.zip17-Jul-1997 00:00 23K 
[   ]swapctrl.zip17-Jul-1997 00:00 1.0K 
[   ]swapky11.zip17-Jul-1997 00:00 2.7K 
[   ]tl235.zip17-Jul-1997 00:00 51K 
[   ]toddy211.zip17-Jul-1997 00:00 6.5K 
[   ]toets.zip08-Dec-1997 00:00 6.6K 
[   ]toggle.zip17-Jul-1997 00:00 1.8K 
[   ]togkey.zip17-Jul-1997 00:00 4.6K 
[   ]tsr45.zip17-Jul-1997 00:00 79K 
[   ]ttlite11.zip17-Jul-1997 00:00 88K 
[   ]wbuf121.zip17-Jul-1997 00:00 10K 
[   ]wced18c.zip17-Jul-1997 00:00 30K 

Apache/2.2.15 (Scientific Linux) Server at sunsite.icm.edu.pl Port 80